Location: Chisholm
(54.9102°N, 114.1701°W)
Time: 18:49:53
(UTC+00:00)

ISS - Pass Details

Date: 03 December 2021
Orbit: 413 x 422 km, 51.6° (Epoch: 28 January)

Event Time Altitude Azimuth Distance (km) Brightness Sun altitude
Rises 23:40:46 0° 262° (W) 2,389 1.4 -4.1°
Reaches altitude 10° 23:42:55 10° 257° (WSW) 1,521 0.5 -4.4°
Maximum altitude 23:46:13 49° 182° (S) 562 -2.8 -4.8°
Drops below altitude 10° 23:49:31 10° 107° (ESE) 1,515 -1.3 -5.2°
Enters shadow 23:51:43 - 101° (ESE) 2,400 -0.4 -5.5°
